Onweer radar Meer informatie blitzortung!


Regen radar Meer informatie rain snow radar


Bezoek onze andere website:

Template documentation
and downloads

And another site



15 daagse weersverwachting Oss (NL)

  • Overzicht
  • Per uur
  • 15 dagen
  • Extra
  • Vergelijk
  • Kaarten
  • Dagkaart
  • Meer »
  • Info
  • Statistieken
  • Directe link
    Temp 6h Neerslag Wind  
 06:03     21:26    Daglengte: 15:23 Morgen
02:00
14°
 
3
08:00
14°
 
4
14:00
19°
 
4
20:00
17°
1.8 mm
4
 06:05     21:24    Daglengte: 15:19 Maandag 02 Aug
02:00
14°
 
2
08:00
14°
 
1
14:00
19°
 
3
20:00
19°
0.7 mm
4
 06:06     21:23    Daglengte: 15:17 Dinsdag 03 Aug
02:00
13°
 
2
08:00
13°
 
1
14:00
20°
 
2
20:00
21°
 
2
Locatie info
Region: Noord-Brabant
Latitude: 51.7682°N
Longitude: 5.5265°E
8 masl
Postcode: 5341 EG
Temp/Neerslag /Baro Onweer/Dauwpunt
    Temp Baro 1h Neerslag Dauwpunt Wind UV Bewolking  
 06:03     21:26    Daglengte: 15:23 Morgen
00:00
15°
1009.6 hPa
47%
13.2°
2
Windvlaag: 3.1 m/s
7%
01:00
14°
1009.5 hPa
12%
12.8°
2
Windvlaag: 2.9 m/s
7%
02:00
14°
1009.3 hPa
12%
13.2°
3
Windvlaag: 3.9 m/s
27%
03:00
14°
1009.0 hPa
13%
13.3°
3
Windvlaag: 4.3 m/s
38%
04:00
14°
1008.7 hPa
14%
13.3°
3
Windvlaag: 4.6 m/s
16%
05:00
14°
1008.3 hPa
12%
13.2°
3
Windvlaag: 4.1 m/s
32%
06:00
14°
1008.6 hPa
12%
12.9°
4
Windvlaag: 4.4 m/s
44%
07:00
14°
1008.6 hPa
12%
13.0°
4
Windvlaag: 5.2 m/s
23%
08:00
14°
1008.7 hPa
12%
13.3°
4
Windvlaag: 5.5 m/s
60%
09:00
15°
1008.7 hPa
13%
13.7°
4
Windvlaag: 5.6 m/s
76%
10:00
16°
1009.0 hPa
30%
13.9°
4
Windvlaag: 5.7 m/s
60%
11:00
17°
1009.0 hPa
64%
14.1°
4
Windvlaag: 5 m/s
58%
12:00
18°
1009.3 hPa
80%
15.0°
4
Windvlaag: 4.6 m/s
56%
13:00
19°
1009.1 hPa
82%
15.8°
5
Windvlaag: 4.7 m/s
60%
14:00
19°
1009.0 hPa
82%
15.9°
4
Windvlaag: 4.2 m/s
61%
15:00
19°
1009.0 hPa 0.7 mm
82%
16.2°
4
Windvlaag: 2.6 m/s
57%
16:00
19°
1009.2 hPa 0.8 mm
82%
16.0°
4
Windvlaag: 1.2 m/s
43% warningclass
17:00
19°
1009.2 hPa
82%
13.1°
5
Windvlaag: 0.6 m/s
43%
18:00
19°
1009.3 hPa 0.4 mm
82%
13.7°
5
Windvlaag: 0.9 m/s
43%
19:00
18°
1009.5 hPa
43%
14.3°
5
Windvlaag: 0.3 m/s
18%
20:00
17°
1009.9 hPa
79%
14.1°
4
Windvlaag: -3.4 m/s
36%
21:00
16°
1010.1 hPa
80%
14.0°
3
Windvlaag: -3.1 m/s
52%
22:00
15°
1010.8 hPa
76%
13.5°
2
Windvlaag: -0.3 m/s
54%
23:00
15°
1011.1 hPa
29%
13.3°
2
Windvlaag: -0.3 m/s
60%
 06:05     21:24    Daglengte: 15:19 Maandag 02 Aug
00:00
15°
1011.4 hPa
30%
12.8°
2
Windvlaag: -0.3 m/s
61%
01:00
15°
1011.5 hPa
62%
12.9°
2
Windvlaag: 0.5 m/s
66%
02:00
14°
1011.5 hPa
62%
12.8°
2
Windvlaag: 0.2 m/s
55%
03:00
14°
1011.4 hPa
64%
12.6°
2
Windvlaag: 0.4 m/s
51%
04:00
14°
1011.6 hPa
25%
12.5°
2
Windvlaag: -0.1 m/s
58%
05:00
13°
1011.5 hPa
22%
12.3°
2
Windvlaag: 0.3 m/s
22%
06:00
13°
1011.8 hPa
23%
11.8°
2
Windvlaag: 0.4 m/s
40%
07:00
13°
1012.2 hPa
58%
11.9°
1
Windvlaag: 0.1 m/s
30%
08:00
14°
1012.5 hPa
21%
12.2°
1
Windvlaag: 0.5 m/s
48%
09:00
15°
1012.7 hPa
19%
12.6°
1
Windvlaag: 0.6 m/s
45%
10:00
16°
1013.0 hPa
18%
12.3°
2
Windvlaag: -0.1 m/s
20%
11:00
17°
1013.4 hPa
18%
11.3°
2
Windvlaag: 0.2 m/s
17%
12:00
17°
1013.7 hPa
18%
11.2°
3
Windvlaag: 2.1 m/s
15%
13:00
18°
1013.6 hPa
17%
11.9°
3
Windvlaag: 2.9 m/s
12%
14:00
19°
1013.5 hPa
16%
12.2°
3
Windvlaag: 3.6 m/s
20%
15:00
20°
1013.3 hPa
25%
12.3°
3
Windvlaag: 1.8 m/s
34%
16:00
20°
1013.3 hPa
21%
12.1°
4
Windvlaag: -3.7 m/s
49%
17:00
19°
1012.9 hPa 0.7 mm
21%
10.8°
3
Windvlaag: -4 m/s
80%
18:00
19°
1012.7 hPa
26%
10.8°
3
Windvlaag: -3.7 m/s
49%
19:00
19°
1012.7 hPa
68%
10.0°
3
Windvlaag: -4 m/s
55%
20:00
19°
1012.8 hPa
24%
9.9°
4
Windvlaag: -4.2 m/s
51%
21:00
17°
1013.1 hPa
21%
11.3°
3
Windvlaag: -3.5 m/s
59%
22:00
16°
1013.6 hPa
21%
10.9°
3
Windvlaag: -2.6 m/s
48%
23:00
15°
1013.9 hPa
21%
10.3°
2
Windvlaag: -1.4 m/s
49%
 06:06     21:23    Daglengte: 15:17 Dinsdag 03 Aug
00:00
14°
1014.1 hPa
21%
9.8°
2
Windvlaag: -1.6 m/s
46%
01:00
13°
1014.0 hPa
21%
9.9°
2
Windvlaag: -1.4 m/s
20%
02:00
13°
1014.1 hPa
21%
10.0°
2
Windvlaag: -1.5 m/s
48%
03:00
12°
1013.8 hPa
21%
10.2°
2
Windvlaag: -1.7 m/s
31%
04:00
12°
1013.6 hPa
21%
10.4°
2
Windvlaag: -1.7 m/s
59%
05:00
12°
1013.5 hPa
21%
10.6°
2
Windvlaag: -1.4 m/s
53%
06:00
11°
1013.5 hPa
21%
10.1°
1
Windvlaag: -1 m/s
58%
07:00
12°
1013.7 hPa
21%
9.9°
1
Windvlaag: -0.9 m/s
69%
08:00
13°
1013.9 hPa
21%
10.0°
1
Windvlaag: -0.3 m/s
64%
09:00
15°
1014.2 hPa
21%
10.5°
2
Windvlaag: -2.3 m/s
56%
10:00
16°
1014.1 hPa
21%
10.7°
2
Windvlaag: -2.8 m/s
52%
11:00
18°
1014.0 hPa
21%
10.6°
3
Windvlaag: -3.3 m/s
47%
12:00
19°
1013.9 hPa
21%
10.4°
2
Windvlaag: -3.4 m/s
49%
13:00
20°
1013.7 hPa
21%
9.8°
2
Windvlaag: -2.9 m/s
37%
14:00
20°
1013.3 hPa
21%
9.8°
2
Windvlaag: -2.5 m/s
30%
15:00
21°
1012.8 hPa
21%
10.3°
2
Windvlaag: 2.9 m/s
11%
16:00
21°
1012.6 hPa
21%
10.7°
2
Windvlaag: 3.6 m/s
16%
17:00
22°
1012.4 hPa
21%
11.2°
2
Windvlaag: 3.7 m/s
18%
18:00
22°
1012.0 hPa
21%
11.9°
2
Windvlaag: 4.1 m/s
20%
19:00
21°
1011.9 hPa
21%
12.2°
2
Windvlaag: 4.1 m/s
20%
20:00
21°
1012.3 hPa
21%
12.3°
2
Windvlaag: 4.5 m/s
20%
21:00
17°
1012.0 hPa 1.9 mm
100%
11.3°
3
Windvlaag: 5 m/s
78%
22:00
15°
1012.3 hPa 1.9 mm
100%
10.6°
4
Windvlaag: 7.2 m/s
47%
23:00
14°
1012.6 hPa 1.9 mm
100%
10.6°
3
Windvlaag: 7.9 m/s
56%
Temp/Neerslag /Baro Onweer/Dauwpunt
    Temp Baro Neerslag Dauwpunt Wind Bewolking  
 06:03     21:26    Daglengte: 15:23 Morgen
02:00
14°
1009.3 hPa   13.2°
3
27%
05:00
14°
1008.3 hPa   13.2°
3
32%
08:00
14°
1008.7 hPa   13.3°
4
60%
11:00
17°
1009.0 hPa   14.1°
4
58%
14:00
19°
1009.0 hPa   15.9°
4
61%
17:00
19°
1009.2 hPa 1.4 mm 13.1°
5
43%
20:00
17°
1009.9 hPa 0.4 mm 14.1°
4
36%
23:00
15°
1011.1 hPa   13.3°
2
60%
 06:05     21:24    Daglengte: 15:19 Maandag 02 Aug
02:00
14°
1011.5 hPa   12.8°
2
55%
05:00
13°
1011.5 hPa   12.3°
2
22%
08:00
14°
1012.5 hPa   12.2°
1
48%
11:00
17°
1013.4 hPa   11.3°
2
17%
14:00
19°
1013.5 hPa   12.2°
3
20%
17:00
19°
1012.9 hPa 0.7 mm 10.8°
3
80%
20:00
19°
1012.8 hPa   9.9°
4
51%
23:00
15°
1013.9 hPa   10.3°
2
49%
 06:06     21:23    Daglengte: 15:17 Dinsdag 03 Aug
02:00
13°
1014.1 hPa   10.0°
2
48%
05:00
12°
1013.5 hPa   10.6°
2
53%
08:00
13°
1013.9 hPa   10.0°
1
64%
11:00
18°
1014.0 hPa   10.6°
3
47%
14:00
20°
1013.3 hPa   9.8°
2
30%
17:00
22°
1012.4 hPa   11.2°
2
18%
20:00
21°
1012.3 hPa   12.3°
2
20%
23:00
14°
1012.6 hPa 5.7 mm 10.6°
3
56%
 06:08     21:21    Daglengte: 15:13 Woensdag 04 Aug
02:00
12°
1013.0 hPa 5.7 mm 10.1°
3
27%
05:00
13°
1012.2 hPa 13.3 mm 11.6°
2
1%
08:00
13°
1012.7 hPa 14.5 mm 12.4°
2
1%
11:00
13°
1013.3 hPa 18.5 mm 12.9°
3
1%
14:00
14°
1013.8 hPa 18.8 mm 12.6°
3
1%
17:00
15°
1014.2 hPa 18.8 mm 12.4°
3
1%
20:00
14°
1014.5 hPa 18.9 mm 12.8°
3
1%
23:00
13°
1014.9 hPa 18.9 mm 11.9°
2
1%
 06:09     21:19    Daglengte: 15:10 Donderdag 05 Aug
02:00
12°
1014.3 hPa 18.9 mm 11.1°
2
1%
05:00
12°
1013.1 hPa 18.9 mm 11.1°
2
0%
08:00
13°
1012.4 hPa 18.9 mm 11.9°
2
0%
11:00
17°
1011.1 hPa 18.9 mm 13.2°
3
1%
14:00
18°
1009.4 hPa 20.0 mm 12.4°
4
1%
17:00
18°
1007.8 hPa 20.0 mm 12.8°
4
1%
20:00
15°
1006.6 hPa 20.5 mm 12.4°
5
1%
23:00
14°
1004.8 hPa 20.8 mm 12.8°
5
1%
 06:11     21:17    Daglengte: 15:06 Vrijdag 06 Aug
02:00
14°
1003.8 hPa 21.4 mm 13.2°
5
1%
05:00
14°
1002.2 hPa 21.7 mm 13.8°
4
1%
08:00
15°
1001.5 hPa 22.7 mm 13.8°
5
1%
11:00
15°
1001.2 hPa 23.7 mm 14.2°
6
1%
14:00
15°
1001.1 hPa 25.5 mm 14.5°
7
1%
17:00
18°
1001.2 hPa 27.0 mm 15.8°
7
1%
20:00
17°
1002.6 hPa 28.4 mm 15.2°
6
1%
23:00
15°
1004.7 hPa 28.9 mm 14.5°
7
0%
 06:12     21:16    Daglengte: 15:04 Zaterdag 07 Aug
02:00
14°
1005.9 hPa 28.9 mm 13.6°
7
0%
05:00
13°
1007.0 hPa 28.9 mm 12.8°
6
1%
08:00
14°
1008.0 hPa 28.9 mm 12.9°
6
1%
11:00
17°
1008.9 hPa 28.9 mm 13.6°
6
1%
14:00
21°
1008.7 hPa 28.9 mm 12.2°
5
1%
17:00
21°
1008.6 hPa 29.0 mm 12.8°
4
1%
20:00
19°
1009.0 hPa 29.0 mm 14.0°
3
1%
23:00
17°
1009.1 hPa   13.1°
2
1%
 06:14     21:14    Daglengte: 15:00 Zondag 08 Aug
02:00
15°
1008.4 hPa 58.5 mm 12.7°
3
1%
08:00
16°
1007.3 hPa 65.2 mm 15.2°
4
1%
14:00
22°
1009.2 hPa 83.3 mm 13.4°
8
1%
20:00
17°
1009.0 hPa 86.8 mm 14.9°
11
0%
 06:16     21:12    Daglengte: 14:56 Maandag 09 Aug
02:00
15°
1012.8 hPa 91.8 mm 11.9°
9
1%
08:00
16°
1015.6 hPa 92.3 mm 13.2°
7
1%
14:00
18°
1018.5 hPa 95.5 mm 15.2°
8
1%
20:00
17°
1020.9 hPa 98.6 mm 12.7°
6
1%
 06:17     21:10    Daglengte: 14:53 Dinsdag 10 Aug
02:00
14°
1022.4 hPa 98.7 mm 11.8°
4
1%
08:00
15°
1022.5 hPa 98.8 mm 13.9°
4
1%
14:00
19°
1023.1 hPa 100.2 mm 16.3°
5
1%
20:00
20°
1019.7 hPa 0.2 mm 14.0°
3
42%
 06:19     21:08    Daglengte: 14:49 Woensdag 11 Aug
02:00
14°
1020.6 hPa 0.1 mm 12.0°
1
37%
08:00
15°
1020.6 hPa   12.6°
2
41%
14:00
22°
1020.3 hPa 0.7 mm 13.0°
2
51%
20:00
19°
1020.0 hPa 0.9 mm 13.7°
2
51%
 06:20     21:06    Daglengte: 14:46 Donderdag 12 Aug
02:00
14°
1020.6 hPa 0.1 mm 11.8°
0
33%
08:00
15°
1020.3 hPa 0.1 mm 12.4°
1
53%
14:00
23°
1019.8 hPa 0.2 mm 13.4°
1
60%
20:00
20°
1019.5 hPa 0.6 mm 14.4°
2
53%
 06:22     21:04    Daglengte: 14:42 Vrijdag 13 Aug
02:00
15°
1020.0 hPa   12.6°
0
47%
08:00
16°
1019.8 hPa   13.3°
1
55%
14:00
23°
1019.5 hPa 0.6 mm 13.8°
2
59%
20:00
21°
1019.0 hPa 0.2 mm 14.3°
1
49%
 06:24     21:02    Daglengte: 14:38 Zaterdag 14 Aug
02:00
16°
1019.4 hPa 0.2 mm 12.4°
1
49%
08:00
16°
1019.1 hPa 0.2 mm 13.3°
1
52%
14:00
22°
1018.8 hPa 0.6 mm 14.1°
2
63%
20:00
20°
1018.2 hPa 0.4 mm 14.5°
1
51%
 06:25     21:00    Daglengte: 14:35 Zondag 15 Aug
02:00
15°
1018.5 hPa 0.3 mm 12.6°
1
43%
08:00
16°
1018.0 hPa 0.2 mm 13.3°
2
52%
14:00
22°
1017.8 hPa 0.6 mm 14.4°
2
52%
20:00
20°
1017.5 hPa 0.9 mm 14.7°
2
55%
  CAPE Lifted Index Hail Supercell Tornado SRH 3km CL BTM PRES CL TOP PRES Swiss DWD icon SMHI TS
 06:03     21:26    Daglengte: 15:23 Morgen
00:00 2 J/kg 0.1 K 0 % 0 % 0 % 0 m²/s² 0 0 1.21 2
01:00 20 J/kg 0.6 K 0 % 0 % 0 % 0 m²/s² 0 0 1.68 2
02:00 36 J/kg 0.4 K 0 % 0 % 0 % 0 m²/s² 0 0 1.48 3
03:00 80 J/kg 0.1 K 0 % 0 % 0 % 0 m²/s² 0 0 0.82 3
04:00 88 J/kg -0.2 K 0 % 0 % 0 % 0 m²/s² 0 0 0.49 3
05:00 0 J/kg -0.3 K 0 % 0 % 0 % 0 m²/s² 0 0 0.63 2
06:00 0 J/kg -0.2 K 0 % 0 % 0 % 0 m²/s² 0 0 0.49 3
07:00 0 J/kg -0.1 K 0 % 0 % 0 % 0 m²/s² 0 0 0.71 2
08:00 0 J/kg -0.4 K 0 % 0 % 0 % 0 m²/s² 0 0 0.62 3
09:00 62 J/kg -0.4 K 0 % 0 % 0 % 0 m²/s² 0 0 0.65 3
10:00 356 J/kg -1.3 K 0 % 0 % 0 % 0 m²/s² 0 0 -0.28 3
11:00 550 J/kg -2.0 K 0 % 0 % 0 % 0 m²/s² 0 0 -1.13 3
12:00 675 J/kg -2.6 K 0 % 0 % 0 % 0 m²/s² 0 0 -1.97 80
13:00 695 J/kg -2.9 K 0 % 0 % 0 % 0 m²/s² 0 0 -1.97 3
14:00 739 J/kg -2.9 K 0 % 0 % 0 % 0 m²/s² 0 0 -2.09 3
15:00 618 J/kg -2.3 K 0 % 0 % 0 % 0 m²/s² 0 0 -1.34 80
16:00 373 J/kg -1.5 K 0 % 0 % 0 % 0 m²/s² 0 0 -1.38 95
17:00 374 J/kg -1.8 K 0 % 0 % 0 % 0 m²/s² 0 0 -1.47 80
18:00 579 J/kg -2.3 K 0 % 0 % 0 % 0 m²/s² 0 0 -1.28 80
19:00 645 J/kg -2.8 K 0 % 0 % 0 % 0 m²/s² 0 0 -1.36 3
20:00 364 J/kg -1.2 K 0 % 0 % 0 % 0 m²/s² 0 0 0.69 3
21:00 159 J/kg -0.1 K 0 % 0 % 0 % 0 m²/s² 0 0 1.73 80
22:00 24 J/kg 1.5 K 0 % 0 % 0 % 0 m²/s² 0 0 2.52 3
23:00 1 J/kg 2.0 K 0 % 0 % 0 % 0 m²/s² 0 0 2.78 3
 06:05     21:24    Daglengte: 15:19 Maandag 02 Aug
00:00 0 J/kg 2.5 K 0 % 0 % 0 % 0 m²/s² 0 0 4.03 3
01:00 0 J/kg 2.8 K 0 % 0 % 0 % 0 m²/s² 0 0 4.39 80
02:00 0 J/kg 3.3 K 0 % 0 % 0 % 0 m²/s² 0 0 5.4 3
03:00 0 J/kg 3.7 K 0 % 0 % 0 % 0 m²/s² 0 0 7.18 3
04:00 0 J/kg 4.6 K 0 % 0 % 0 % 0 m²/s² 0 0 9.1 3
05:00 0 J/kg 5.7 K 0 % 0 % 0 % 0 m²/s² 0 0 10.68 3
06:00 0 J/kg 5.6 K 0 % 0 % 0 % 0 m²/s² 0 0 10.58 3
07:00 0 J/kg 5.7 K 0 % 0 % 0 % 0 m²/s² 0 0 7.59 3
08:00 0 J/kg 5.6 K 0 % 0 % 0 % 0 m²/s² 0 0 6.77 3
09:00 6 J/kg 5.0 K 0 % 0 % 0 % 0 m²/s² 0 0 5.12 3
10:00 12 J/kg 4.7 K 0 % 0 % 0 % 0 m²/s² 0 0 5.12 2
11:00 7 J/kg 4.6 K 0 % 0 % 0 % 0 m²/s² 0 0 4.9 2
12:00 18 J/kg 4.1 K 0 % 0 % 0 % 0 m²/s² 0 0 4.49 2
13:00 27 J/kg 3.6 K 0 % 0 % 0 % 0 m²/s² 0 0 4.11 3
14:00 35 J/kg 3.2 K 0 % 0 % 0 % 0 m²/s² 0 0 3.83 3
15:00 41 J/kg 2.9 K 0 % 0 % 0 % 0 m²/s² 0 0 4.79 3
16:00 47 J/kg 2.8 K 0 % 0 % 0 % 0 m²/s² 0 0 5.77 3
17:00 54 J/kg 2.2 K 0 % 0 % 0 % 0 m²/s² 0 0 5.5 3
18:00 69 J/kg 2.0 K 0 % 0 % 0 % 0 m²/s² 0 0 5.57 3
19:00 21 J/kg 2.6 K 0 % 0 % 0 % 0 m²/s² 0 0 6.35 3
20:00 0 J/kg 3.7 K 0 % 0 % 0 % 0 m²/s² 0 0 7.87 3
21:00 0 J/kg 4.0 K 0 % 0 % 0 % 0 m²/s² 0 0 8.29 3
22:00 0 J/kg 4.5 K 0 % 0 % 0 % 0 m²/s² 0 0 9.12 2
23:00 0 J/kg 5.0 K 0 % 0 % 0 % 0 m²/s² 0 0 9.86 3
 06:06     21:23    Daglengte: 15:17 Dinsdag 03 Aug
00:00 0 J/kg 5.5 K 0 % 0 % 0 % 0 m²/s² 0 0 10.36 3
01:00 0 J/kg 4.9 K 0 % 0 % 0 % 0 m²/s² 0 0 10.03 2
02:00 0 J/kg 4.8 K 0 % 0 % 0 % 0 m²/s² 0 0 10.08 2
03:00 0 J/kg 4.6 K 0 % 0 % 0 % 0 m²/s² 0 0 9.58 2
04:00 0 J/kg 4.8 K 0 % 0 % 0 % 0 m²/s² 0 0 9.54 2
05:00 0 J/kg 4.7 K 0 % 0 % 0 % 0 m²/s² 0 0 9.56 2
06:00 0 J/kg 4.7 K 0 % 0 % 0 % 0 m²/s² 0 0 9.32 2
07:00 0 J/kg 4.8 K 0 % 0 % 0 % 0 m²/s² 0 0 9.09 2
08:00 0 J/kg 4.8 K 0 % 0 % 0 % 0 m²/s² 0 0 8.97 2
09:00 0 J/kg 4.2 K 0 % 0 % 0 % 0 m²/s² 0 0 8.49 2
10:00 0 J/kg 4.0 K 0 % 0 % 0 % 0 m²/s² 0 0 8.17 1
11:00 1 J/kg 3.8 K 0 % 0 % 0 % 0 m²/s² 0 0 7.97 2
12:00 12 J/kg 3.9 K 0 % 0 % 0 % 0 m²/s² 0 0 7.56 2
13:00 15 J/kg 3.7 K 0 % 0 % 0 % 0 m²/s² 0 0 6.91 2
14:00 17 J/kg 3.3 K 0 % 0 % 0 % 0 m²/s² 0 0 6.03 2
15:00 14 J/kg 3.2 K 0 % 0 % 0 % 0 m²/s² 0 0 5.63 2
16:00 23 J/kg 2.7 K 0 % 0 % 0 % 0 m²/s² 0 0 4.92 1
17:00 35 J/kg 2.2 K 0 % 0 % 0 % 0 m²/s² 0 0 4.57 2
18:00 67 J/kg 1.9 K 0 % 0 % 0 % 0 m²/s² 0 0 4.48 0
19:00 51 J/kg 2.3 K 0 % 0 % 0 % 0 m²/s² 0 0 5.21 0
20:00 48 J/kg 2.5 K 0 % 0 % 0 % 0 m²/s² 0 0 5.74 0
21:00 19 J/kg 3.0 K 0 % 0 % 0 % 0 m²/s² 0 0 6.78
22:00 0 J/kg 3.5 K 0 % 0 % 0 % 0 m²/s² 0 0 7.79
23:00 0 J/kg 3.7 K 0 % 0 % 0 % 0 m²/s² 0 0 8.23
Temp Baro Wind Neerslag
  EWN Forecast EWN WRFDA DWD ICON FMI HIRLAM MET Norway GFS
 06:03     21:26    Daglengte: 15:23 Morgen
02:00 14.2° 1009.3 hPa 2.6 m/s 0.0 mm 12.1° 1008.4 hPa 2.9 m/s 0.0 mm 14.3° 1009.7 hPa 2.5 m/s -1.4 mm 14.7° 1008.7 hPa 2.3 m/s 0.0 mm 12.8° 1009.4 hPa 3.1 m/s
05:00 13.8° 1008.3 hPa 3.3 m/s 0.0 mm 11.6° 1007.5 hPa 3.0 m/s 0.0 mm 13.9° 1008.9 hPa 3.3 m/s 0.0 mm 14.0° 1007.6 hPa 2.9 m/s 0.0 mm 12.1° 1008.6 hPa 3.1 m/s
08:00 14.4° 1008.7 hPa 3.6 m/s 0.0 mm 14.3° 1007.2 hPa 3.1 m/s 0.0 mm 14.3° 1009.0 hPa 3.7 m/s 0.0 mm 14.5° 1007.8 hPa 3.0 m/s 0.0 mm 13.6° 1009.0 hPa 4.2 m/s
11:00 17.5° 1009.0 hPa 4.2 m/s 0.0 mm 19.2° 1007.5 hPa 3.6 m/s 0.1 mm 17.7° 1009.3 hPa 4.4 m/s 0.0 mm 17.9° 1008.2 hPa 3.0 m/s 0.0 mm 19.0° 1009.1 hPa 4.6 m/s
14:00 19.1° 1009.0 hPa 4.4 m/s 0.0 mm 21.4° 1007.2 hPa 5.0 m/s 1.0 mm 19.0° 1009.6 hPa 3.8 m/s 0.4 mm 19.1° 1008.2 hPa 4.3 m/s 0.0 mm 20.5° 1008.9 hPa 5.0 m/s
17:00 18.7° 1009.2 hPa 4.6 m/s 1.4 mm 19.2° 1007.5 hPa 5.4 m/s 2.5 mm 18.2° 1009.7 hPa 4.5 m/s 2.7 mm 19.0° 1008.1 hPa 4.4 m/s 0.0 mm 19.3° 1009.5 hPa 4.2 m/s
20:00 16.9° 1009.9 hPa 3.5 m/s 0.4 mm 18.2° 1008.1 hPa 4.0 m/s 4.4 mm 16.9° 1010.1 hPa 3.3 m/s 0.3 mm 17.0° 1009.1 hPa 2.9 m/s 0.0 mm 16.8° 1010.2 hPa 4.0 m/s
23:00 15.1° 1011.1 hPa 2.2 m/s 0.0 mm 15.0° 1009.6 hPa 3.0 m/s 5.0 mm 15.2° 1011.2 hPa 1.6 m/s 0.3 mm 15.2° 1010.9 hPa 2.0 m/s 0.0 mm 13.0° 1012.1 hPa 2.3 m/s
 06:05     21:24    Daglengte: 15:19 Maandag 02 Aug
02:00 14.4° 1011.5 hPa 2.3 m/s 0.0 mm 12.8° 1010.0 hPa 2.7 m/s 5.0 mm 14.7° 1011.6 hPa 1.5 m/s 0.3 mm 15.0° 1011.1 hPa 2.3 m/s 0.0 mm 11.9° 1012.9 hPa 2.4 m/s
05:00 13.1° 1011.5 hPa 1.8 m/s 0.0 mm 9.5° 1010.3 hPa 2.2 m/s 5.0 mm 14.3° 1011.5 hPa 1.1 m/s 0.1 mm 13.4° 1011.3 hPa 2.0 m/s 0.0 mm 10.7° 1013.3 hPa 2.1 m/s
08:00 13.7° 1012.5 hPa 1.3 m/s 0.0 mm 12.8° 1011.7 hPa 1.1 m/s 5.0 mm 14.8° 1012.5 hPa 1.3 m/s 0.0 mm 13.7° 1012.4 hPa 1.8 m/s 0.0 mm 12.4° 1014.2 hPa 1.4 m/s
11:00 16.8° 1013.4 hPa 2.3 m/s 0.0 mm 15.9° 1011.9 hPa 2.2 m/s 5.6 mm 17.5° 1013.0 hPa 2.2 m/s 0.0 mm 16.8° 1013.5 hPa 3.6 m/s 0.0 mm 16.0° 1014.7 hPa 2.3 m/s
14:00 19.2° 1013.5 hPa 2.6 m/s 0.0 mm 19.1° 1011.7 hPa 2.7 m/s 5.7 mm 19.5° 1013.0 hPa 2.6 m/s 0.0 mm 17.8° 1014.2 hPa 3.0 m/s 0.0 mm 19.3° 1014.0 hPa 2.9 m/s
17:00 19.4° 1012.9 hPa 3.4 m/s 0.7 mm 20.1° 1011.2 hPa 3.9 m/s 5.7 mm 19.6° 1013.0 hPa 2.8 m/s 0.0 mm 18.8° 1013.6 hPa 3.3 m/s
20:00 18.6° 1012.8 hPa 3.8 m/s 0.0 mm 18.7° 1011.5 hPa 4.5 m/s 5.7 mm 18.6° 1012.7 hPa 1.8 m/s 0.0 mm 18.0° 1013.5 hPa 1.6 m/s
23:00 14.6° 1013.9 hPa 2.2 m/s 0.0 mm 12.0° 1012.4 hPa 2.8 m/s 5.7 mm 14.9° 1013.9 hPa 1.6 m/s 0.0 mm 12.9° 1014.1 hPa 2.9 m/s
 06:06     21:23    Daglengte: 15:17 Dinsdag 03 Aug
02:00 12.7° 1014.1 hPa 1.9 m/s 0.0 mm 10.0° 1012.6 hPa 1.9 m/s 5.7 mm 13.0° 1014.1 hPa 1.4 m/s 0.0 mm 12.1° 1013.7 hPa 2.4 m/s
05:00 11.7° 1013.5 hPa 1.5 m/s 0.0 mm 9.7° 1011.9 hPa 2.2 m/s 5.7 mm 12.5° 1013.6 hPa 1.1 m/s 0.0 mm 12.5° 1012.6 hPa 2.2 m/s
08:00 13.0° 1013.9 hPa 1.4 m/s 0.0 mm 13.2° 1012.5 hPa 1.6 m/s 5.7 mm 13.7° 1014.0 hPa 1.5 m/s 0.0 mm 13.7° 1012.8 hPa 1.9 m/s
11:00 17.7° 1014.0 hPa 2.6 m/s 0.0 mm 17.6° 1011.9 hPa 3.0 m/s 5.7 mm 18.3° 1014.2 hPa 1.8 m/s 0.0 mm 15.2° 1012.6 hPa 1.9 m/s
14:00 20.3° 1013.3 hPa 1.8 m/s 0.0 mm 20.1° 1011.1 hPa 2.4 m/s 5.7 mm 20.6° 1013.7 hPa 1.6 m/s 0.0 mm 15.8° 1012.2 hPa 2.6 m/s
17:00 21.8° 1012.4 hPa 2.3 m/s 0.0 mm 21.2° 1010.9 hPa 3.7 m/s 5.7 mm 21.9° 1012.7 hPa 2.0 m/s 0.0 mm 18.3° 1012.1 hPa 3.1 m/s
20:00 20.5° 1012.3 hPa 1.8 m/s 0.0 mm 19.4° 1011.5 hPa 4.2 m/s 5.7 mm 20.8° 1012.5 hPa 1.2 m/s 0.0 mm 17.0° 1012.5 hPa 2.8 m/s
23:00 13.8° 1012.6 hPa 3.1 m/s 5.7 mm 13.8° 1012.6 hPa 3.1 m/s 5.7 mm 14.6° 1013.4 hPa 2.3 m/s
 06:08     21:21    Daglengte: 15:13 Woensdag 04 Aug
02:00 11.9° 1013.0 hPa 2.8 m/s 5.7 mm 11.9° 1013.0 hPa 2.8 m/s 5.7 mm 14.2° 1013.3 hPa 2.2 m/s
05:00 13.4° 1012.2 hPa 2.1 m/s 13.3 mm 13.4° 1012.2 hPa 2.1 m/s 13.3 mm
08:00 13.1° 1012.7 hPa 2.3 m/s 14.5 mm 13.1° 1012.7 hPa 2.3 m/s 14.5 mm
11:00 13.4° 1013.3 hPa 2.9 m/s 18.5 mm 13.4° 1013.3 hPa 2.9 m/s 18.5 mm
14:00 13.7° 1013.8 hPa 3.3 m/s 18.8 mm 13.7° 1013.8 hPa 3.3 m/s 18.8 mm
17:00 15.1° 1014.2 hPa 3.2 m/s 18.8 mm 15.1° 1014.2 hPa 3.2 m/s 18.8 mm
20:00 14.4° 1014.5 hPa 2.7 m/s 18.9 mm 14.4° 1014.5 hPa 2.7 m/s 18.9 mm
23:00 13.1° 1014.9 hPa 2.3 m/s 18.9 mm 13.1° 1014.9 hPa 2.3 m/s 18.9 mm
 06:09     21:19    Daglengte: 15:10 Donderdag 05 Aug
02:00 11.8° 1014.3 hPa 1.6 m/s 18.9 mm 11.8° 1014.3 hPa 1.6 m/s 18.9 mm
05:00 11.7° 1013.1 hPa 2.0 m/s 18.9 mm 11.7° 1013.1 hPa 2.0 m/s 18.9 mm
08:00 13.4° 1012.4 hPa 1.9 m/s 18.9 mm 13.4° 1012.4 hPa 1.9 m/s 18.9 mm
11:00 17.0° 1011.1 hPa 3.3 m/s 18.9 mm 17.0° 1011.1 hPa 3.3 m/s 18.9 mm
14:00 18.3° 1009.4 hPa 3.8 m/s 20.0 mm 18.3° 1009.4 hPa 3.8 m/s 20.0 mm
17:00 18.3° 1007.8 hPa 4.1 m/s 20.0 mm 18.3° 1007.8 hPa 4.1 m/s 20.0 mm
20:00 14.8° 1006.6 hPa 4.9 m/s 20.5 mm 14.8° 1006.6 hPa 4.9 m/s 20.5 mm
23:00 13.8° 1004.8 hPa 5.5 m/s 20.8 mm 13.8° 1004.8 hPa 5.5 m/s 20.8 mm
 06:11     21:17    Daglengte: 15:06 Vrijdag 06 Aug
02:00 13.9° 1003.8 hPa 4.5 m/s 21.4 mm 13.9° 1003.8 hPa 4.5 m/s 21.4 mm
05:00 14.2° 1002.2 hPa 4.3 m/s 21.7 mm 14.2° 1002.2 hPa 4.3 m/s 21.7 mm
08:00 14.8° 1001.5 hPa 5.3 m/s 22.7 mm 14.8° 1001.5 hPa 5.3 m/s 22.7 mm
11:00 15.2° 1001.2 hPa 6.4 m/s 23.7 mm 15.2° 1001.2 hPa 6.4 m/s 23.7 mm
14:00 15.5° 1001.1 hPa 6.8 m/s 25.5 mm 15.5° 1001.1 hPa 6.8 m/s 25.5 mm
17:00 17.8° 1001.2 hPa 6.5 m/s 27.0 mm 17.8° 1001.2 hPa 6.5 m/s 27.0 mm
20:00 17.2° 1002.6 hPa 6.1 m/s 28.4 mm 17.2° 1002.6 hPa 6.1 m/s 28.4 mm
23:00 15.3° 1004.7 hPa 6.9 m/s 28.9 mm 15.3° 1004.7 hPa 6.9 m/s 28.9 mm
 06:12     21:16    Daglengte: 15:04 Zaterdag 07 Aug
02:00 14.2° 1005.9 hPa 6.9 m/s 28.9 mm 14.2° 1005.9 hPa 6.9 m/s 28.9 mm
05:00 13.3° 1007.0 hPa 5.9 m/s 28.9 mm 13.3° 1007.0 hPa 5.9 m/s 28.9 mm
08:00 14.0° 1008.0 hPa 6.2 m/s 28.9 mm 14.0° 1008.0 hPa 6.2 m/s 28.9 mm
11:00 16.6° 1008.9 hPa 6.3 m/s 28.9 mm 16.6° 1008.9 hPa 6.3 m/s 28.9 mm
14:00 20.7° 1008.7 hPa 5.4 m/s 28.9 mm 20.7° 1008.7 hPa 5.4 m/s 28.9 mm
17:00 20.8° 1008.6 hPa 3.8 m/s 29.0 mm 20.8° 1008.6 hPa 3.8 m/s 29.0 mm
20:00 18.9° 1009.0 hPa 3.5 m/s 29.0 mm 18.9° 1009.0 hPa 3.5 m/s 29.0 mm
23:00 17.3° 1009.1 hPa 2.3 m/s 29.3 mm 17.3° 1009.1 hPa 2.3 m/s 29.3 mm
 06:14     21:14    Daglengte: 15:00 Zondag 08 Aug
02:00 15.4° 1008.4 hPa 3.4 m/s 29.3 mm 15.4° 1008.4 hPa 3.4 m/s 29.3 mm
08:00 15.5° 1007.3 hPa 3.8 m/s 35.5 mm 15.5° 1007.3 hPa 3.8 m/s 35.5 mm
14:00 21.6° 1009.2 hPa 8.5 m/s 41.8 mm 21.6° 1009.2 hPa 8.5 m/s 41.8 mm
20:00 16.9° 1009.0 hPa 11.1 m/s 44.5 mm 16.9° 1009.0 hPa 11.1 m/s 44.5 mm
 06:16     21:12    Daglengte: 14:56 Maandag 09 Aug
02:00 14.6° 1012.8 hPa 8.7 m/s 45.9 mm 14.6° 1012.8 hPa 8.7 m/s 45.9 mm
08:00 15.7° 1015.6 hPa 7.1 m/s 46.2 mm 15.7° 1015.6 hPa 7.1 m/s 46.2 mm
14:00 18.1° 1018.5 hPa 8.2 m/s 48.7 mm 18.1° 1018.5 hPa 8.2 m/s 48.7 mm
20:00 16.9° 1020.9 hPa 5.9 m/s 49.3 mm 16.9° 1020.9 hPa 5.9 m/s 49.3 mm
 06:17     21:10    Daglengte: 14:53 Dinsdag 10 Aug
02:00 13.6° 1022.4 hPa 4.3 m/s 49.4 mm 13.6° 1022.4 hPa 4.3 m/s 49.4 mm
08:00 15.2° 1022.5 hPa 3.9 m/s 49.4 mm 15.2° 1022.5 hPa 3.9 m/s 49.4 mm
14:00 19.5° 1023.1 hPa 5.2 m/s 50.9 mm 19.5° 1023.1 hPa 5.2 m/s 50.9 mm
20:00 19.5° 1019.7 hPa 2.6 m/s 0.2 mm
 06:19     21:08    Daglengte: 14:49 Woensdag 11 Aug
02:00 13.9° 1020.6 hPa 1.4 m/s 0.1 mm
08:00 14.8° 1020.6 hPa 1.7 m/s 0.0 mm
14:00 21.6° 1020.3 hPa 1.9 m/s 0.7 mm
20:00 19.4° 1020.0 hPa 1.8 m/s 0.9 mm
 06:20     21:06    Daglengte: 14:46 Donderdag 12 Aug
02:00 14.2° 1020.6 hPa 0.4 m/s 0.1 mm
08:00 15.0° 1020.3 hPa 0.5 m/s 0.1 mm
14:00 22.5° 1019.8 hPa 0.8 m/s 0.2 mm
20:00 20.2° 1019.5 hPa 1.6 m/s 0.6 mm
 06:22     21:04    Daglengte: 14:42 Vrijdag 13 Aug
02:00 15.5° 1020.0 hPa 0.5 m/s 0.0 mm
08:00 16.1° 1019.8 hPa 1.0 m/s 0.0 mm
14:00 22.7° 1019.5 hPa 1.9 m/s 0.6 mm
20:00 20.5° 1019.0 hPa 1.5 m/s 0.2 mm
 06:24     21:02    Daglengte: 14:38 Zaterdag 14 Aug
02:00 15.7° 1019.4 hPa 0.8 m/s 0.2 mm
08:00 16.0° 1019.1 hPa 1.2 m/s 0.2 mm
14:00 22.4° 1018.8 hPa 1.5 m/s 0.6 mm
20:00 20.2° 1018.2 hPa 1.4 m/s 0.4 mm
 06:25     21:00    Daglengte: 14:35 Zondag 15 Aug
02:00 15.1° 1018.5 hPa 0.7 m/s 0.3 mm
08:00 15.6° 1018.0 hPa 1.6 m/s 0.2 mm
14:00 21.9° 1017.8 hPa 2.4 m/s 0.6 mm
20:00 19.6° 1017.5 hPa 2.0 m/s 0.9 mm
FMI Hirlam - 7.5 km EWN WRFDA - 12 km DWD ICON - 7 km GFS - 25 km Basiskaart






























































Updatetijd (Europe/Amsterdam) Resolutie Lengte Stap
FMI Hirlam 19:00, 01:00, 07:00, 13:00 7.5 km 49h 1h
EWN WRFDA 22:15, 04:15, 10:15, 16:15 12 km 73h 1h
DWD ICON 18:15, 00:15, 06:15, 12:15 7 km 75h 1h
GFS 20:15, 02:15, 08:15, 14:15 25 km 237h 3h
30+ mm
25-30 mm
20-25 mm
15-20 mm
10-15 mm
6-10 mm
4-6 mm
2-4 mm
1-2 mm
0.5-1 mm
0.2-0.5 mm
0.1-0.2 mm
30+ mm
25-30 mm
20-25 mm
15-20 mm
10-15 mm
6-10 mm
4-6 mm
2-4 mm
1-2 mm
0.5-1 mm
0.2-0.5 mm
0.1-0.2 mm
Sneeuwval
Natte sneeuw
Hagel
Vorst
30+ mm
25-30 mm
20-25 mm
15-20 mm
10-15 mm
6-10 mm
4-6 mm
2-4 mm
1-2 mm
0.5-1 mm
0.2-0.5 mm
0.1-0.2 mm
Sneeuwval
Natte sneeuw
Hagel
Vorst
Onweer
50 mm
40 mm
30 mm
26 mm
22 mm
18 mm
14 mm
10 mm
9 mm
8 mm
7 mm
6 mm
5 mm
4.5 mm
4 mm
3.5 mm
3 mm
2.5 mm
2 mm
1.5 mm
1 mm
0.8 mm
0.6 mm
0.4 mm
0.2 mm
0.05 mm
35°
30°
25°
20°
15°
10°
-5°
-10°
-15°
-20°
-25°
-30°
-35°
33> m/s
29 m/s
25 m/s
21 m/s
17 m/s
14 m/s
11 m/s
8 m/s
5 m/s
3 m/s
0 m/s
2600 J/kg
2400 J/kg
2200 J/kg
2000 J/kg
1800 J/kg
1600 J/kg
1400 J/kg
1200 J/kg
1000 J/kg
800 J/kg
600 J/kg
400 J/kg
200 J/kg
70 dBZ
65 dBZ
60 dBZ
55 dBZ
50 dBZ
45 dBZ
40 dBZ
35 dBZ
30 dBZ
25 dBZ
20 dBZ
15 dBZ
10 dBZ
5 dBZ
-1 K
-2 K
-3 K
-4 K
-5 K
-6 K
-7 K
-8 K
-9 K
950 m²/s²
900 m²/s²
850 m²/s²
800 m²/s²
750 m²/s²
700 m²/s²
650 m²/s²
600 m²/s²
550 m²/s²
500 m²/s²
450 m²/s²
400 m²/s²
350 m²/s²
300 m²/s²
250 m²/s²
200 m²/s²
150 m²/s²
100 m²/s²
46 m/s
44 m/s
42 m/s
40 m/s
38 m/s
36 m/s
34 m/s
32 m/s
30 m/s
28 m/s
26 m/s
24 m/s
22 m/s
20 m/s
16 m/s
12 m/s
8 m/s
4 m/s
30 m/s
28 m/s
26 m/s
24 m/s
22 m/s
20 m/s
18 m/s
16 m/s
14 m/s
12 m/s
10 m/s
8 m/s
6 m/s
4 m/s
2 m/s
3.0
2.8
2.6
2.4
2.2
2.0
1.8
1.6
1.4
1.2
1.0
0.8
0.6
0.4
0.2
15
14
13
12
11
10
9
8
7
6
5
4
3
2
1
90%
80%
70%
60%
50%
40%
30%
20%
10%
42
40
38
36
34
32
30
28
26
24
22
20
18
16
14
12
90+ cm
80-90 cm
70-80 cm
60-70 cm
50-60 cm
40-50 cm
30-40 cm
20-30 cm
10-20 cm
1-10 cm
Sneeuwval
Natte sneeuw
Regen
>120 mm
115 mm
110 mm
105 mm
100 mm
95 mm
90 mm
85 mm
80 mm
75 mm
70 mm
65 mm
60 mm
55 mm
50 mm
45 mm
45 mm
40 mm
35 mm
30 mm
25 mm
20 mm
15 mm
10 mm
5 mm
0.1 mm
960 hPa
880 hPa
800 hPa
720 hPa
640 hPa
560 hPa
584 gpdm
568 gpdm
552 gpdm
536 gpdm
520 gpdm
504 gpdm
488 gpdm
Extreem zwaar Noodweer Kans op onweer
15% 15% 5% 50% 15%